Previsão horária em Abay

Hoje, 11 Abril, Domingo

Tempo Temperatura Precipitação Vento Pressão Humidade
00:00 0°C° 0 mm 9 m/s 724 mmHg 66%
01:00 -1°C° 0 mm 9 m/s 724 mmHg 69%
02:00 -3°C° 0 mm 9 m/s 724 mmHg 72%
03:00 -3°C° 0 mm 9 m/s 725 mmHg 73%
04:00 -2°C° 0 mm 8 m/s 725 mmHg 73%
05:00 -4°C° 0 mm 8 m/s 725 mmHg 74%
06:00 -3°C° 0 mm 9 m/s 726 mmHg 73%
07:00 -1°C° 0 mm 9 m/s 726 mmHg 73%
08:00 -2°C° 0 mm 10 m/s 726 mmHg 72%
09:00 +1°C° 0 mm 10 m/s 726 mmHg 66%
10:00 +2°C° 0 mm 10 m/s 727 mmHg 60%
11:00 +5°C° 0 mm 10 m/s 727 mmHg 54%
12:00 +6°C° 0 mm 10 m/s 727 mmHg 50%
13:00 +7°C° 0 mm 10 m/s 727 mmHg 46%
14:00 +8°C° 0 mm 9 m/s 726 mmHg 42%
15:00 +8°C° 0 mm 9 m/s 726 mmHg 43%
16:00 +8°C° 0 mm 9 m/s 727 mmHg 45%
17:00 +9°C° 0 mm 8 m/s 727 mmHg 46%
18:00 +7°C° 0 mm 8 m/s 727 mmHg 50%
19:00 +5°C° 0 mm 8 m/s 727 mmHg 54%
20:00 +4°C° 0 mm 7 m/s 727 mmHg 58%
21:00 +3°C° 0 mm 7 m/s 727 mmHg 60%
22:00 +3°C° 0 mm 7 m/s 727 mmHg 62%
23:00 +2°C° 0 mm 6 m/s 726 mmHg 64%

Amanhã, 12 Abril, Segunda-feira

Tempo Temperatura Precipitação Vento Pressão Humidade
00:00 +1°C° 0 mm 6 m/s 726 mmHg 66%
01:00 +1°C° 0 mm 5 m/s 726 mmHg 69%
02:00 0°C° 0 mm 5 m/s 726 mmHg 71%
03:00 0°C° 0 mm 5 m/s 726 mmHg 71%
04:00 -1°C° 0 mm 5 m/s 726 mmHg 70%
05:00 -1°C° 0 mm 5 m/s 726 mmHg 70%
06:00 -1°C° 0 mm 6 m/s 726 mmHg 63%
07:00 +2°C° 0 mm 6 m/s 726 mmHg 56%
08:00 +3°C° 0 mm 7 m/s 726 mmHg 49%
09:00 +5°C° 0 mm 7 m/s 726 mmHg 43%
10:00 +8°C° 0 mm 7 m/s 726 mmHg 38%
11:00 +10°C° 0 mm 8 m/s 726 mmHg 32%
12:00 +12°C° 0 mm 8 m/s 726 mmHg 30%
13:00 +13°C° 0 mm 8 m/s 726 mmHg 27%
14:00 +15°C° 0 mm 8 m/s 725 mmHg 25%
15:00 +15°C° 0 mm 7 m/s 725 mmHg 27%
16:00 +15°C° 0 mm 7 m/s 725 mmHg 29%
17:00 +15°C° 0 mm 7 m/s 725 mmHg 30%
18:00 +13°C° 0 mm 6 m/s 725 mmHg 36%
19:00 +10°C° 0 mm 6 m/s 725 mmHg 42%
20:00 +8°C° 0 mm 5 m/s 725 mmHg 47%
21:00 +7°C° 0 mm 5 m/s 725 mmHg 50%
22:00 +6°C° 0 mm 5 m/s 725 mmHg 53%
23:00 +5°C° 0 mm 5 m/s 725 mmHg 56%

Depois de amanhã, 13 Abril, Terça-feira

Tempo Temperatura Precipitação Vento Pressão Humidade
00:00 +5°C° 0 mm 5 m/s 725 mmHg 57%
01:00 +3°C° 0 mm 5 m/s 725 mmHg 59%
02:00 +3°C° 0 mm 5 m/s 725 mmHg 60%
03:00 +2°C° 0 mm 5 m/s 725 mmHg 61%
04:00 +2°C° 0 mm 5 m/s 725 mmHg 62%
05:00 +1°C° 0 mm 5 m/s 725 mmHg 63%
06:00 +2°C° 0 mm 6 m/s 726 mmHg 58%
07:00 +3°C° 0 mm 7 m/s 726 mmHg 53%
08:00 +4°C° 0 mm 7 m/s 726 mmHg 49%
09:00 +6°C° 0 mm 8 m/s 726 mmHg 43%
10:00 +9°C° 0 mm 8 m/s 726 mmHg 36%
11:00 +11°C° 0 mm 8 m/s 726 mmHg 30%
12:00 +12°C° 0 mm 8 m/s 726 mmHg 28%
13:00 +13°C° 0 mm 8 m/s 726 mmHg 27%
14:00 +15°C° 0 mm 8 m/s 726 mmHg 26%
15:00 +13°C° 0 mm 8 m/s 726 mmHg 33%
16:00 +13°C° 0 mm 8 m/s 726 mmHg 40%
17:00 +13°C° 0 mm 8 m/s 726 mmHg 47%
18:00 +11°C° 0 mm 8 m/s 726 mmHg 56%
19:00 +9°C° 0 mm 8 m/s 726 mmHg 64%
20:00 +7°C° 0 mm 8 m/s 726 mmHg 73%
21:00 +6°C° 0 mm 8 m/s 726 mmHg 74%
22:00 +5°C° 0 mm 7 m/s 726 mmHg 74%
23:00 +4°C° 0 mm 7 m/s 726 mmHg 75%

14 Abril, Quarta-feira

Tempo Temperatura Precipitação Vento Pressão Humidade
00:00 +4°C° 0 mm 7 m/s 726 mmHg 74%
01:00 +3°C° 0 mm 6 m/s 726 mmHg 74%
02:00 +2°C° 0 mm 6 m/s 725 mmHg 73%
03:00 +2°C° 0 mm 6 m/s 725 mmHg 73%
04:00 +1°C° 0 mm 6 m/s 725 mmHg 72%
05:00 +1°C° 0 mm 6 m/s 725 mmHg 72%
06:00 +2°C° 0 mm 6 m/s 725 mmHg 64%
07:00 +3°C° 0 mm 7 m/s 725 mmHg 56%
08:00 +5°C° 0 mm 7 m/s 725 mmHg 48%
09:00 +8°C° 0 mm 7 m/s 724 mmHg 42%
10:00 +10°C° 0 mm 7 m/s 724 mmHg 36%
11:00 +12°C° 0 mm 7 m/s 724 mmHg 29%
12:00 +14°C° 0 mm 7 m/s 723 mmHg 27%
13:00 +16°C° 0 mm 7 m/s 723 mmHg 25%
14:00 +17°C° 0 mm 7 m/s 723 mmHg 23%
15:00 +17°C° 0 mm 7 m/s 722 mmHg 24%
16:00 +17°C° 0 mm 7 m/s 722 mmHg 25%
17:00 +17°C° 0 mm 7 m/s 721 mmHg 26%
18:00 +15°C° 0 mm 6 m/s 721 mmHg 31%
19:00 +13°C° 0 mm 6 m/s 721 mmHg 35%
20:00 +10°C° 0 mm 6 m/s 721 mmHg 40%
21:00 +9°C° 0 mm 6 m/s 720 mmHg 43%
22:00 +8°C° 0 mm 6 m/s 720 mmHg 46%
23:00 +7°C° 0 mm 5 m/s 720 mmHg 48%

15 Abril, Quinta-feira

Tempo Temperatura Precipitação Vento Pressão Humidade
00:00 +6°C° 0 mm 5 m/s 719 mmHg 51%
01:00 +6°C° 0 mm 4 m/s 719 mmHg 53%
02:00 +5°C° 0 mm 4 m/s 719 mmHg 55%
03:00 +5°C° 0 mm 4 m/s 718 mmHg 55%
04:00 +4°C° 0 mm 4 m/s 718 mmHg 56%
05:00 +4°C° 0 mm 4 m/s 718 mmHg 56%
06:00 +5°C° 0 mm 4 m/s 718 mmHg 52%
07:00 +7°C° 0 mm 5 m/s 717 mmHg 47%
08:00 +8°C° 0 mm 5 m/s 717 mmHg 43%
09:00 +10°C° 0 mm 6 m/s 717 mmHg 37%
10:00 +14°C° 0 mm 6 m/s 717 mmHg 31%
11:00 +16°C° 0 mm 7 m/s 717 mmHg 26%
12:00 +17°C° 0 mm 7 m/s 716 mmHg 23%
13:00 +20°C° 0 mm 7 m/s 716 mmHg 20%
14:00 +21°C° 0 mm 7 m/s 716 mmHg 18%
15:00 +21°C° 0 mm 6 m/s 715 mmHg 18%
16:00 +21°C° 0 mm 6 m/s 715 mmHg 19%
17:00 +21°C° 0 mm 6 m/s 714 mmHg 20%
18:00 +19°C° 0 mm 6 m/s 714 mmHg 25%
19:00 +16°C° 0 mm 5 m/s 714 mmHg 30%
20:00 +14°C° 0 mm 5 m/s 713 mmHg 34%
21:00 +13°C° 0 mm 5 m/s 713 mmHg 36%
22:00 +13°C° 0 mm 6 m/s 713 mmHg 37%
23:00 +11°C° 0 mm 6 m/s 713 mmHg 38%

16 Abril, Sexta-feira

Tempo Temperatura Precipitação Vento Pressão Humidade
00:00 +12°C° 0 mm 5 m/s 712 mmHg 40%
01:00 +11°C° 0 mm 4 m/s 712 mmHg 43%
02:00 +11°C° 0 mm 4 m/s 712 mmHg 45%
03:00 +10°C° 0 mm 4 m/s 712 mmHg 48%
04:00 +10°C° 0 mm 4 m/s 712 mmHg 50%
05:00 +10°C° 0 mm 4 m/s 711 mmHg 53%
06:00 +9°C° 0 mm 5 m/s 711 mmHg 50%
07:00 +10°C° 0 mm 5 m/s 711 mmHg 47%
08:00 +12°C° 0 mm 5 m/s 711 mmHg 43%
09:00 +14°C° 0 mm 6 m/s 711 mmHg 42%
10:00 +16°C° 0 mm 6 m/s 711 mmHg 41%
11:00 +18°C° 0 mm 7 m/s 711 mmHg 39%
12:00 +18°C° 0 mm 7 m/s 711 mmHg 38%
13:00 +18°C° 0 mm 7 m/s 711 mmHg 37%
14:00 +20°C° 0 mm 7 m/s 710 mmHg 36%
15:00 +18°C° 0 mm 7 m/s 710 mmHg 36%
16:00 +18°C° 0 mm 7 m/s 710 mmHg 36%
17:00 +19°C° 0 mm 6 m/s 710 mmHg 37%
18:00 +16°C° 0 mm 6 m/s 710 mmHg 41%
19:00 +15°C° 0 mm 5 m/s 710 mmHg 46%
20:00 +14°C° 0 mm 4 m/s 710 mmHg 50%
21:00 +13°C° 0 mm 4 m/s 710 mmHg 52%
22:00 +13°C° 0 mm 4 m/s 709 mmHg 55%
23:00 +12°C° 0 mm 4 m/s 709 mmHg 57%
Mostrar mais

Necessitamos do seu Consentimento

A Meteoprog e os seus Fornecedores de Serviços podem armazenar e aceder a dados pessoais como cookies, identificadores do dispositivo ou outras tecnologias semelhantes existentes no seu dispositivo e processar estes dados para personalizar conteúdos e anúncios, assim como funcionalidades nas redes sociais e análise de tráfego.

  • Armazenar e/ou aceder a informações no seu dispositivo

    Os cookies, identificadores do dispositivo ou outras informações podem ser armazenados ou acedidos no seu dispositivo, para os fins acima indicados.

  • Anúncios e conteúdos personalizados, medição de anúncios e conteúdos, dados sobre o público-alvo e desenvolvimento de produtos

    Os anúncios e os conteúdos podem ser personalizados com base num perfil. Podem ser adicionados dados adicionais para uma maior personalização dos anúncios e dos conteúdos. A eficácia dos anúncios e dos conteúdos pode ser medida. Podem ser obtidas informações sobre o público que visualizou os anúncios e os conteúdos. Estes dados podem ser usados para desenvolver ou melhorar sistemas, softwares ou a experiência do utilizador.

Ao clicar em "Eu concordo”, permitirá o uso de cookies, identificadores do dispositivo e web beacons mencionados ou outras tecnologias semelhantes. As configurações do navegador do seu dispositivo podem ser alteradas.

Para certos fins, podem ser invocados interesses legítimos ao invés de consentimento. Pode ler mais informação sobre este assunto na nossa Política de Privacidade e Cookies.